FENGYUN 1C DEB, 35125

Orbit data source: Space-Track

FENGYUN 1C DEB, 35125 is space debris in SSO originally from a launch on Mon, 10 May 1999 UTC launched from the Taiyaun Space Center, China (TSC). Fengyun 1C debris stems from the Chinese weather satellite Fengyun-1C, which was intentionally destroyed by a Chinese anti-satellite missile in 2007. This event dramatically increased the amount of space debris, with thousands of trackable fragments posing hazards to satellites and human spaceflight. The Fengyun 1C debris cloud has become a focal point in discussions about space sustainability and the need for international regulations to prevent the creation of new debris.

Loading next visibility...
Identifier
35125, 1999-025DLD
Orbit
SSO
Country
Flag of CNCN / PRC
Related business
Manufacturer
Unknown
Mission
Spacecraft
Bus & Motor
Unknown
Mass
Unknown
Launch date (UTC)
1999-05-10 (26 years ago)
Launch vehicle
Unknown
Launch site
Taiyaun Space Center, China (TSC)
Object type
Payload
Rocket body
Debris
Shape & HBR
Unknown shape, 0.1 m
Radar Cross Section
Small (<0.1 m²)

Expand to show TLE details & history
Last TLE update: 1 week ago

TLE from 1 week ago
0 FENGYUN 1C DEB
1 35125U 99025DLD 25292.85428237  .00006223  00000-0  22680-2 0  9993
2 35125  98.2201 306.6644 0054665  95.1346 265.6081 14.32578342305109
Epoch: 2025-10-19T20:30Z
TLE epoch observation values (Epoch: 2025-10-19T20:30:09.996Z)
Latitude
-0.00004°
Longitude
-29.44222°
Altitude
789.284 km
Speed
7.457 km/s
True Right ascension
20h 26m 39s
True Declination
0° 00' 00"
Sunlit
Object was in daylight at epoch
Visualization orbit readout
Latitude
Unknown
Longitude
Unknown
Altitude
Unknown
Speed
Unknown
Apparent Right ascension
Unknown
Apparent Declination
Unknown
Sunlit
N/A
Visualization observer readout
Local Sidereal Time
17:07:37
Azimuth
Unknown
Elevation
Unknown
Doppler factor
Unknown
Orbital elements
Apogee altitude
819.375 km
Perigee altitude
741.113 km
Semi-major axis
7,158.381 km
Eccentricity
0.00547
Inclination
98.2201°
RAAN
306.6644°
Arg. of periapsis
95.1346°
True anomaly
264.98386°
Mean anomaly
265.6081°
Eccentric anomaly
265.29595°
Mean motion
3.58361 °/min
Orbital period
100.46 mins
BSTAR
0.002268
Loading maneuver chart data...
Computing Atmospheric mass density...

Documentation

Showing up to 5 results
|